| time (UTC) | temp F | wind direction | speed MPH | gust MPH | rain 1hr in | rain 24hr in | rain mn in | humidity % | barometer mb |
| 20260505011512 | 48 | 191 | 3.0 | 6.0 | 0.00 | 0.00 | 0.57 | 74 | 1005.0 |
| 20260505011012 | 48 | 227 | 5.0 | 8.0 | 0.00 | 0.00 | 0.57 | 73 | 1004.0 |
| 20260505010511 | 48 | 151 | 4.0 | 11.0 | 0.00 | 0.00 | 0.57 | 73 | 1004.0 |
| 20260505010012 | 48 | 221 | 3.0 | 14.0 | 0.00 | 0.00 | 0.57 | 73 | 1004.0 |
| 20260505005512 | 48 | 231 | 7.0 | 12.0 | 0.00 | 0.00 | 0.57 | 72 | 1004.0 |
| 20260505005012 | 49 | 296 | 4.0 | 12.0 | 0.00 | 0.00 | 0.57 | 72 | 1004.0 |
| 20260505004511 | 49 | 228 | 5.0 | 10.0 | 0.00 | 0.00 | 0.57 | 72 | 1004.0 |
| 20260505004014 | 49 | 197 | 6.0 | 10.0 | 0.00 | 0.00 | 0.57 | 72 | 1004.0 |
| 20260505003512 | 49 | 231 | 6.0 | 15.0 | 0.00 | 0.00 | 0.57 | 71 | 1004.0 |
| 20260505003012 | 49 | 251 | 11.0 | 12.0 | 0.00 | 0.00 | 0.57 | 71 | 1004.0 |
| 20260505002512 | 49 | 254 | 5.0 | 14.0 | 0.00 | 0.00 | 0.57 | 71 | 1004.0 |
| 20260505002011 | 49 | 203 | 3.0 | 11.0 | 0.00 | 0.00 | 0.57 | 71 | 1003.0 |
| 20260505001513 | 50 | 230 | 5.0 | 11.0 | 0.00 | 0.00 | 0.57 | 70 | 1003.0 |
| 20260505001011 | 50 | 228 | 6.0 | 10.0 | 0.00 | 0.00 | 0.57 | 70 | 1003.0 |
| 20260505000511 | 50 | 200 | 4.0 | 13.0 | 0.00 | 0.00 | 0.57 | 69 | 1003.0 |
| 20260505000011 | 50 | 192 | 5.0 | 13.0 | 0.00 | 0.00 | 0.57 | 69 | 1003.0 |
| 20260504235512 | 50 | 221 | 5.0 | 18.0 | 0.00 | 0.00 | 0.57 | 68 | 1003.0 |
| 20260504235011 | 50 | 190 | 4.0 | 13.0 | 0.00 | 0.00 | 0.57 | 69 | 1003.0 |
| 20260504234513 | 50 | 213 | 10.0 | 17.0 | 0.00 | 0.00 | 0.57 | 69 | 1003.0 |
| 20260504234011 | 50 | 233 | 8.0 | 14.0 | 0.00 | 0.00 | 0.57 | 69 | 1003.0 |
| 20260504233511 | 50 | 217 | 9.0 | 11.0 | 0.00 | 0.00 | 0.57 | 69 | 1003.0 |
| 20260504233012 | 50 | 203 | 6.0 | 11.0 | 0.00 | 0.00 | 0.57 | 69 | 1002.0 |
| 20260504232511 | 50 | 188 | 7.0 | 11.0 | 0.00 | 0.00 | 0.57 | 68 | 1002.0 |
| 20260504232013 | 50 | 238 | 3.0 | 9.0 | 0.00 | 0.00 | 0.57 | 67 | 1002.0 |
| 20260504231519 | 50 | 249 | 9.0 | 10.0 | 0.00 | 0.00 | 0.57 | 66 | 1002.0 |
| 20260504231014 | 51 | 254 | 3.0 | 11.0 | 0.00 | 0.00 | 0.57 | 66 | 1002.0 |
| 20260504230512 | 51 | 252 | 4.0 | 10.0 | 0.00 | 0.00 | 0.57 | 65 | 1002.0 |
| 20260504230013 | 51 | 258 | 6.0 | 11.0 | 0.00 | 0.00 | 0.57 | 64 | 1002.0 |
| 20260504225512 | 51 | 188 | 6.0 | 13.0 | 0.00 | 0.00 | 0.57 | 63 | 1002.0 |
| 20260504225011 | 51 | 245 | 10.0 | 12.0 | 0.00 | 0.00 | 0.57 | 61 | 1002.0 |
| 20260504224512 | 52 | 140 | 4.0 | 11.0 | 0.00 | 0.00 | 0.57 | 59 | 1002.0 |
| 20260504224012 | 52 | 255 | 8.0 | 15.0 | 0.00 | 0.00 | 0.57 | 57 | 1002.0 |
| 20260504223511 | 52 | 221 | 5.0 | 9.0 | 0.00 | 0.00 | 0.57 | 55 | 1002.0 |
| 20260504223013 | 53 | 144 | 5.0 | 13.0 | 0.00 | 0.00 | 0.57 | 53 | 1002.0 |
| 20260504222513 | 53 | 231 | 4.0 | 7.0 | 0.00 | 0.00 | 0.57 | 51 | 1002.0 |
| 20260504222020 | 53 | 240 | 5.0 | 16.0 | 0.00 | 0.00 | 0.57 | 50 | 1002.0 |
| 20260504221512 | 54 | 227 | 4.0 | 9.0 | 0.00 | 0.00 | 0.57 | 49 | 1002.0 |
| 20260504221012 | 54 | 203 | 5.0 | 12.0 | 0.00 | 0.00 | 0.57 | 47 | 1001.0 |
| 20260504220512 | 54 | 206 | 3.0 | 14.0 | 0.00 | 0.00 | 0.57 | 47 | 1001.0 |
| 20260504220012 | 55 | 279 | 7.0 | 12.0 | 0.00 | 0.00 | 0.57 | 46 | 1001.0 |
| 20260504215512 | 55 | 126 | 2.0 | 13.0 | 0.00 | 0.00 | 0.57 | 44 | 1001.0 |
| 20260504215013 | 55 | 247 | 6.0 | 14.0 | 0.00 | 0.00 | 0.57 | 44 | 1001.0 |
| 20260504214511 | 55 | 258 | 15.0 | 25.0 | 0.00 | 0.00 | 0.57 | 43 | 1001.0 |
| 20260504214011 | 55 | 269 | 9.0 | 21.0 | 0.00 | 0.00 | 0.57 | 44 | 1001.0 |
| 20260504213512 | 55 | 256 | 9.0 | 9.0 | 0.00 | 0.00 | 0.57 | 45 | 1001.0 |
| 20260504213013 | 55 | 214 | 5.0 | 14.0 | 0.00 | 0.00 | 0.57 | 44 | 1001.0 |
| 20260504212516 | 55 | 223 | 7.0 | 15.0 | 0.00 | 0.00 | 0.57 | 44 | 1001.0 |
| 20260504212013 | 56 | 255 | 11.0 | 23.0 | 0.00 | 0.00 | 0.57 | 43 | 1001.0 |
| 20260504211513 | 56 | 233 | 5.0 | 10.0 | 0.00 | 0.00 | 0.57 | 43 | 1001.0 |
| 20260504211011 | 57 | 248 | 8.0 | 14.0 | 0.00 | 0.00 | 0.57 | 41 | 1001.0 |
| 20260504210514 | 57 | 234 | 5.0 | 16.0 | 0.00 | 0.00 | 0.57 | 40 | 1001.0 |
| 20260504210014 | 58 | 227 | 7.0 | 15.0 | 0.00 | 0.00 | 0.57 | 38 | 1001.0 |
| 20260504205511 | 59 | 231 | 3.0 | 9.0 | 0.00 | 0.00 | 0.57 | 39 | 1001.0 |
| 20260504205014 | 59 | 241 | 6.0 | 10.0 | 0.00 | 0.00 | 0.57 | 39 | 1001.0 |
| 20260504204514 | 61 | 212 | 3.0 | 10.0 | 0.00 | 0.00 | 0.57 | 36 | 1001.0 |
| 20260504204012 | 61 | 234 | 3.0 | 7.0 | 0.00 | 0.00 | 0.57 | 37 | 1001.0 |
| 20260504203511 | 62 | 238 | 5.0 | 13.0 | 0.00 | 0.00 | 0.57 | 36 | 1000.0 |
| 20260504203015 | 63 | 245 | 16.0 | 19.0 | 0.00 | 0.00 | 0.57 | 34 | 1001.0 |
| 20260504202514 | 64 | 212 | 5.0 | 15.0 | 0.00 | 0.00 | 0.57 | 33 | 1000.0 |
| 20260504202012 | 64 | 249 | 6.0 | 12.0 | 0.00 | 0.00 | 0.57 | 31 | 1000.0 |
| 20260504201511 | 63 | 184 | 4.0 | 15.0 | 0.00 | 0.00 | 0.57 | 33 | 1000.0 |
| 20260504201012 | 62 | 253 | 10.0 | 17.0 | 0.00 | 0.00 | 0.57 | 31 | 1000.0 |
| 20260504200513 | 62 | 221 | 5.0 | 19.0 | 0.00 | 0.00 | 0.57 | 32 | 1000.0 |
| 20260504200013 | 61 | 254 | 9.0 | 11.0 | 0.00 | 0.00 | 0.57 | 36 | 1000.0 |
| 20260504195513 | 61 | 233 | 3.0 | 13.0 | 0.00 | 0.00 | 0.57 | 35 | 1000.0 |
| 20260504195015 | 61 | 248 | 7.0 | 18.0 | 0.00 | 0.00 | 0.57 | 33 | 1000.0 |
| 20260504194515 | 61 | 250 | 8.0 | 14.0 | 0.00 | 0.00 | 0.57 | 34 | 1000.0 |
| 20260504194013 | 61 | 242 | 8.0 | 13.0 | 0.00 | 0.00 | 0.57 | 36 | 1000.0 |
| 20260504193514 | 61 | 238 | 7.0 | 21.0 | 0.00 | 0.00 | 0.57 | 33 | 1000.0 |
| 20260504193013 | 62 | 261 | 8.0 | 23.0 | 0.00 | 0.00 | 0.57 | 33 | 1000.0 |
| 20260504192120 | 61 | 271 | 9.0 | 12.0 | 0.00 | 0.00 | 0.57 | 35 | 1000.0 |
| 20260504191512 | 60 | 244 | 5.0 | 18.0 | 0.00 | 0.00 | 0.57 | 35 | 1000.0 |
| 20260504191014 | 60 | 247 | 10.0 | 14.0 | 0.00 | 0.00 | 0.57 | 35 | 1000.0 |
| 20260504190512 | 61 | 248 | 14.0 | 18.0 | 0.00 | 0.00 | 0.57 | 34 | 1000.0 |
| 20260504190013 | 61 | 224 | 5.0 | 14.0 | 0.00 | 0.00 | 0.57 | 34 | 1000.0 |
| 20260504185514 | 61 | 231 | 9.0 | 14.0 | 0.00 | 0.00 | 0.57 | 37 | 1000.0 |
| 20260504185012 | 61 | 241 | 6.0 | 12.0 | 0.00 | 0.00 | 0.57 | 37 | 1000.0 |
| 20260504184515 | 60 | 242 | 5.0 | 14.0 | 0.00 | 0.00 | 0.57 | 36 | 1000.0 |
| 20260504184013 | 59 | 249 | 13.0 | 14.0 | 0.00 | 0.00 | 0.57 | 40 | 1000.0 |
| 20260504183513 | 59 | 218 | 13.0 | 14.0 | 0.00 | 0.00 | 0.57 | 39 | 1000.0 |
| 20260504182514 | 59 | 226 | 6.0 | 14.0 | 0.00 | 0.00 | 0.57 | 40 | 1000.0 |
| 20260504182014 | 58 | 279 | 5.0 | 22.0 | 0.00 | 0.00 | 0.57 | 39 | 1000.0 |
| 20260504181514 | 58 | 267 | 9.0 | 12.0 | 0.00 | 0.00 | 0.57 | 45 | 1000.0 |
| 20260504181014 | 58 | 210 | 12.0 | 18.0 | 0.00 | 0.00 | 0.57 | 44 | 1000.0 |
| 20260504180513 | 58 | 200 | 9.0 | 12.0 | 0.00 | 0.00 | 0.57 | 45 | 1000.0 |
| 20260504175549 | 57 | 240 | 9.0 | 14.0 | 0.00 | 0.00 | 0.57 | 45 | 1000.0 |
| 20260504175013 | 56 | 247 | 10.0 | 11.0 | 0.00 | 0.00 | 0.57 | 49 | 1000.0 |
| 20260504174513 | 56 | 211 | 17.0 | 19.0 | 0.00 | 0.00 | 0.57 | 47 | 1000.0 |
| 20260504174013 | 56 | 225 | 11.0 | 18.0 | 0.00 | 0.00 | 0.57 | 48 | 1000.0 |
| 20260504173515 | 56 | 265 | 8.0 | 18.0 | 0.00 | 0.00 | 0.57 | 48 | 1000.0 |
| 20260504173013 | 56 | 239 | 9.0 | 17.0 | 0.00 | 0.00 | 0.57 | 47 | 1000.0 |
| 20260504172514 | 56 | 252 | 14.0 | 25.0 | 0.00 | 0.00 | 0.57 | 47 | 1000.0 |
| 20260504172014 | 57 | 230 | 15.0 | 18.0 | 0.00 | 0.00 | 0.57 | 50 | 1000.0 |
| 20260504171514 | 56 | 211 | 10.0 | 12.0 | 0.00 | 0.00 | 0.57 | 49 | 1000.0 |
| 20260504171016 | 56 | 157 | 22.0 | 23.0 | 0.00 | 0.00 | 0.57 | 49 | 1000.0 |
| 20260504170514 | 56 | 277 | 12.0 | 13.0 | 0.00 | 0.00 | 0.57 | 50 | 1000.0 |
| 20260504151013 | 53 | 240 | 10.0 | 20.0 | 0.00 | 0.00 | 0.57 | 59 | 999.0 |
| 20260504150515 | 53 | 329 | 4.0 | 13.0 | 0.00 | 0.00 | 0.57 | 62 | 999.0 |
| 20260504140625 | 48 | 277 | 15.0 | 20.0 | 0.00 | 0.00 | 0.57 | 74 | 998.0 |
| 20260504130513 | 45 | 251 | 4.0 | 16.0 | 0.00 | 0.00 | 0.57 | 81 | 998.0 |
| 20260504110513 | 41 | 248 | 6.0 | 11.0 | 0.02 | 0.00 | 0.57 | 93 | 996.0 |
| 20260504100516 | 40 | 5 | 6.0 | 24.0 | 0.00 | 0.00 | 0.56 | 95 | 995.0 |
| 20260504081513 | 38 | 354 | 9.0 | 26.0 | 0.09 | 0.00 | 0.45 | 96 | 992.0 |
| 20260504081015 | 38 | 338 | 11.0 | 17.0 | 0.14 | 0.00 | 0.44 | 96 | 992.0 |
| 20260504080515 | 38 | 334 | 13.0 | 23.0 | 0.14 | 0.00 | 0.43 | 95 | 992.0 |
| 20260504050515 | 36 | 353 | 15.0 | 29.0 | 0.19 | 0.00 | 0.25 | 97 | 988.0 |
| 20260504050013 | 37 | 354 | 22.0 | 35.0 | 0.19 | 0.00 | 0.23 | 97 | 988.0 |
| 20260504045511 | 37 | 349 | 18.0 | 34.0 | 0.19 | 0.00 | 0.21 | 98 | 988.0 |
| 20260504045012 | 37 | 17 | 16.0 | 33.0 | 0.19 | 0.00 | 0.19 | 98 | 988.0 |
| 20260504044512 | 37 | 345 | 20.0 | 32.0 | 0.12 | 0.00 | 0.17 | 98 | 988.0 |
| 20260504044012 | 37 | 9 | 15.0 | 34.0 | 0.07 | 0.00 | 0.16 | 98 | 988.0 |
| 20260504043512 | 37 | 8 | 22.0 | 31.0 | 0.12 | 0.00 | 0.15 | 98 | 988.0 |
| 20260504043011 | 37 | 15 | 24.0 | 36.0 | 0.09 | 0.00 | 0.14 | 98 | 988.0 |
| 20260504042513 | 37 | 28 | 19.0 | 41.0 | 0.12 | 0.00 | 0.13 | 98 | 988.0 |
| 20260504042015 | 37 | 1 | 25.0 | 44.0 | 0.12 | 0.00 | 0.12 | 98 | 988.0 |
| 20260504041512 | 37 | 13 | 25.0 | 35.0 | 0.07 | 0.00 | 0.11 | 98 | 988.0 |
| 20260504041012 | 37 | 10 | 19.0 | 35.0 | 0.02 | 0.00 | 0.10 | 98 | 988.0 |
| 20260504040512 | 37 | 1 | 33.0 | 43.0 | 0.05 | 0.00 | 0.10 | 98 | 988.0 |
| 20260504040012 | 37 | 5 | 20.0 | 35.0 | 0.02 | 0.00 | 0.09 | 98 | 988.0 |
| 20260504035512 | 37 | 22 | 19.0 | 39.0 | 0.05 | 0.00 | 0.09 | 98 | 988.0 |
| 20260504035013 | 37 | 3 | 24.0 | 33.0 | 0.07 | 0.00 | 0.09 | 98 | 988.0 |
| 20260504034511 | 37 | 343 | 22.0 | 39.0 | 0.05 | 0.00 | 0.08 | 98 | 988.0 |
| 20260504034013 | 37 | 11 | 24.0 | 29.0 | 0.05 | 0.00 | 0.08 | 98 | 988.0 |
| 20260504033515 | 37 | 2 | 18.0 | 36.0 | 0.05 | 0.00 | 0.08 | 98 | 988.0 |
| 20260504033012 | 37 | 9 | 24.0 | 33.0 | 0.07 | 0.00 | 0.07 | 98 | 988.0 |
| 20260504032512 | 37 | 38 | 23.0 | 35.0 | 0.07 | 0.00 | 0.06 | 98 | 988.0 |
| 20260504032011 | 37 | 5 | 19.0 | 37.0 | 0.14 | 0.00 | 0.06 | 98 | 988.0 |
| 20260504031513 | 37 | 7 | 17.0 | 38.0 | 0.17 | 0.00 | 0.05 | 98 | 988.0 |
| 20260504031017 | 37 | 14 | 26.0 | 33.0 | 0.17 | 0.00 | 0.04 | 99 | 988.0 |
| 20260504030511 | 37 | 8 | 35.0 | 36.0 | 0.19 | 0.00 | 0.02 | 99 | 988.0 |
| 20260504030011 | 36 | 24 | 24.0 | 40.0 | 0.19 | 0.00 | 2.26 | 99 | 988.0 |
| 20260504025512 | 36 | 34 | 13.0 | 36.0 | 0.21 | 0.00 | 2.24 | 99 | 988.0 |
| 20260504025011 | 36 | 16 | 27.0 | 35.0 | 0.17 | 0.00 | 2.22 | 99 | 988.0 |
| 20260504024513 | 36 | 24 | 28.0 | 43.0 | 0.14 | 0.00 | 2.21 | 99 | 988.0 |
| 20260504024011 | 36 | 20 | 24.0 | 47.0 | 0.17 | 0.00 | 2.19 | 99 | 988.0 |
| 20260504023512 | 36 | 10 | 19.0 | 38.0 | 0.14 | 0.00 | 2.18 | 99 | 989.0 |
| 20260504023018 | 36 | 46 | 21.0 | 34.0 | 0.14 | 0.00 | 2.17 | 99 | 989.0 |
| 20260504022511 | 36 | 3 | 11.0 | 47.0 | 0.17 | 0.00 | 2.15 | 99 | 989.0 |
| 20260504022011 | 35 | 50 | 35.0 | 40.0 | 0.14 | 0.00 | 2.14 | 99 | 989.0 |
| 20260504021511 | 35 | 58 | 10.0 | 37.0 | 0.17 | 0.00 | 2.13 | 99 | 989.0 |
| 20260504021011 | 35 | 33 | 26.0 | 40.0 | 0.17 | 0.00 | 2.11 | 99 | 990.0 |
| 20260504020512 | 35 | 39 | 26.0 | 39.0 | 0.17 | 0.00 | 2.10 | 99 | 990.0 |
| 20260504020011 | 35 | 32 | 32.0 | 33.0 | 0.19 | 0.00 | 2.08 | 99 | 990.0 |
| 20260504015511 | 35 | 56 | 25.0 | 39.0 | 0.14 | 0.00 | 2.06 | 99 | 990.0 |
| 20260504015012 | 35 | 50 | 12.0 | 44.0 | 0.12 | 0.00 | 2.05 | 99 | 990.0 |
| 20260504014512 | 35 | 60 | 20.0 | 37.0 | 0.14 | 0.00 | 2.04 | 99 | 990.0 |
| 20260504013603 | 35 | 71 | 17.0 | 34.0 | 0.12 | 0.00 | 2.01 | 99 | 991.0 |
| 20260504013012 | 35 | 51 | 19.0 | 37.0 | 0.17 | 0.00 | 2.00 | 99 | 991.0 |
| 20260504012520 | 35 | 65 | 23.0 | 39.0 | 0.14 | 0.00 | 1.99 | 99 | 991.0 |
| 20260504012012 | 35 | 52 | 26.0 | 42.0 | 0.14 | 0.00 | 1.97 | 99 | 991.0 |